Skip Page Navigation
NASA JPL Caltech
NASA Logo - Jet Propulsion Laboratory + View the NASA Portal
+ Center for Near-Earth Object Studies
JPL Home Earth Solar System Stars & Galaxies Technology
JPL Solar System Dynamics
BODIES ORBITS EPHEMERIDES TOOLS PHYSICAL DATA DISCOVERY FAQ SITE MAP
IMPORTANT: The SSD Announcement email list is now available. Major changes are coming in the near future, including possible hostname and/or URL changes. To be notified of such changes, subscribe to this email list.

Please visit this page for more details.


JPL Small-Body Database Browser
Search: [ help ]  
226294 (2003 BV52)
Classification: Main-belt Asteroid          SPK-ID: 2226294
Ephemeris | Orbit Diagram | Orbital Elements | Mission Design | Physical Parameters | Discovery Circumstances | Close-Approach Data ]

[ show orbit diagram ]
Orbital Elements at Epoch 2458600.5 (2019-Apr-27.0) TDB
Reference: JPL 12 (heliocentric ecliptic J2000)
 Element Value Uncertainty (1-sigma)   Units 
e .1813255712690816 5.4664e-08  
a 2.369630256145644 1.5791e-08 au
q 1.939955696253535 1.2804e-07 au
i 3.474596279576094 7.2195e-06 deg
node 44.87084623468627 8.879e-05 deg
peri 106.42923915 9.1282e-05 deg
M 147.5187270813092 2.4655e-05 deg
tp 2458054.536056542380
(2017-Oct-28.03605654)
8.7826e-05 TDB
period 1332.353007197592
3.65
1.3318e-05
3.646e-08
d
yr
n .27019866210773 2.7009e-09 deg/d
Q 2.799304816037753 1.8655e-08 au
  Orbit Determination Parameters
   # obs. used (total)      276  
   data-arc span      6086 days (16.66 yr)  
   first obs. used      2003-01-27  
   last obs. used      2019-09-26  
   planetary ephem.      DE431  
   SB-pert. ephem.      SB431-N16  
   condition code      0  
   norm. resid. RMS      .61055  
   source      ORB  
   producer      Otto Matic  
   solution date      2019-Nov-08 00:51:38  

Additional Information
 Earth MOID = .954546 au 
 Jupiter MOID = 2.20277 au 
 T_jup = 3.521 
[ show covariance matrix ]

Ephemeris | Orbit Diagram | Orbital Elements | Mission Design | Physical Parameters | Discovery Circumstances | Close-Approach Data ]

Physical Parameter Table
Parameter Symbol Value Units Sigma Reference Notes
absolute magnitude H 17.4   n/a MPO440182  

226294 (2003 BV52)          Discovered 2003-Jan-27 by LONEOS at Anderson Mesa
Reference: 20091202/Numbers.arcLast Updated: 2009-12-04

[ show close-approach data ]
Alternate Designations
 2003 BV52 = 2005 UJ193 
Ephemeris | Orbit Diagram | Orbital Elements | Mission Design | Physical Parameters | Discovery Circumstances | Close-Approach Data ]
ABOUT SSD CREDITS/AWARDS PRIVACY/COPYRIGHT GLOSSARY LINKS
FirstGov 2019-Dec-10 02:56 UT
(server date/time)  
NASA Home Page
Site Manager:   Ryan S. Park
Webmaster  Alan B. Chamberlin